This demonstration page uses our WeatherBlox Daily Observations layout. Learn more.

Left ArrowRight Arrow

Hourly Observations for July 28, 2015

Temp ( °F °C ) Dew Point ( °F °C ) Humidity (%) Winds ( mph kmh ) Pressure ( in mb ) Visibility ( mi km ) Precip ( " mm )
12:53 am 00:53 Clear with Mist and Fog 72 22.2 71 21.7 97 97 N N/A 30.00 1016 6 10 N/A
1:53 am 01:53 Clear with Mist and Fog 71 21.7 70 21.1 96 96 N N/A 29.98 1015 5 8 N/A
2:53 am 02:53 Clear with Mist and Fog 70 21.1 69 20.6 97 97 N N/A 29.97 1015 5 8 N/A
3:53 am 03:53 Clear with Mist and Fog 70 21.1 69 20.6 97 97 N N/A 29.96 1015 4 6 N/A
4:53 am 04:53 Clear with Mist and Fog 70 21.1 69 20.6 97 97 N N/A 29.97 1015 5 8 N/A
5:53 am 05:53 Clear with Mist and Fog 69 20.6 68 20 96 96 N N/A 29.98 1015 3 5 N/A
6:20 am 06:20 Partly Cloudy with Mist and Fog 70 21.1 69 20.6 97 97 N N/A 30.00 1016 3 4 N/A
6:32 am 06:32 Mostly Cloudy with Mist and Fog 70 21.1 68 20 93 93 N N/A 30.00 1016 3 5 N/A
6:45 am 06:45 Mostly Cloudy with Mist and Fog 69 20.6 68 20 96 96 N N/A 30.00 1016 2 3 N/A
6:53 am 06:53 Partly Cloudy with Mist and Fog 70 21.1 69 20.6 97 97 N N/A 29.99 1016 2 3 N/A
7:53 am 07:53 Sunny with Mist and Fog 75 23.9 72 22.2 90 90 N N/A 30.00 1016 3 5 N/A
8:53 am 08:53 Sunny 78 25.6 74 23.3 87 87 E 3 6 30.00 1016 7 11 N/A
9:53 am 09:53 Mostly Sunny 81 27.2 74 23.3 79 79 N N/A 30.00 1016 9 14 N/A
10:53 am 10:53 Mostly Sunny 85 29.4 74 23.3 70 70 N N/A 29.99 1016 10 16 N/A
11:53 am 11:53 Mostly Cloudy 86 30 73 22.8 65 65 N N/A 29.99 1016 10 16 N/A
12:53 pm 12:53 Partly Cloudy 89 31.7 72 22.2 57 57 VRB 3 6 29.99 1016 10 16 N/A
1:53 pm 13:53 Partly Cloudy 89 31.7 73 22.8 59 59 NNW 5 7 29.98 1015 10 16 N/A
2:53 pm 14:53 Mostly Cloudy 90 32.2 73 22.8 58 58 N 7 11 29.96 1015 10 16 N/A
3:53 pm 15:53 Sunny 90 32.2 72 22.2 56 56 NW 5 7 29.96 1014 10 16 N/A
4:53 pm 16:53 Partly Cloudy 89 31.7 71 21.7 55 55 NNW 3 6 29.94 1014 10 16 N/A
5:53 pm 17:53 Sunny 90 32.2 72 22.2 56 56 N 5 7 29.94 1014 10 16 N/A
6:53 pm 18:53 Mostly Sunny 88 31.1 73 22.8 61 61 N 3 6 29.93 1014 10 16 N/A
7:53 pm 19:53 Sunny 86 30 73 22.8 65 65 E 5 7 29.91 1013 10 16 N/A
8:53 pm 20:53 Sunny 80 26.7 75 23.9 85 85 N N/A 29.92 1013 8 13 N/A
9:53 pm 21:53 Clear with Light Rain 77 25 74 23.3 90 90 N N/A 29.94 1014 6 10 N/A
10:53 pm 22:53 Clear with Light Rain 76 24.4 73 22.8 91 91 N N/A 29.99 1016 8 13 N/A
11:53 pm 23:53 Mostly Clear with Light Rain 75 23.9 73 22.8 94 94 N N/A 29.99 1016 8 13 N/A

Powered by AerisWeather